This is the latest recevied weather packets stored in our database for station/object Winterlng. If no packets are shown the sender has not sent any weather packets the latest 10 day(s).
| Time | Temp. | Humidity | Pressure | Rain* | Wind** | Luminosity | Snow |
|---|---|---|---|---|---|---|---|
| 1777851129 | 12.22° C | 64% | 0 hPa | 0.76 mm | - | - | - |
| 1777849329 | 12.22° C | 64% | 0 hPa | 0.76 mm | - | - | - |
| 1777847530 | 12.22° C | 60% | 0 hPa | 0.76 mm | - | - | - |
| 1777845732 | 12.22° C | 60% | 0 hPa | 0 mm | - | - | - |
| 1777843930 | 12.78° C | 60% | 0 hPa | 0.76 mm | - | - | - |
| 1777842131 | 13.33° C | 57% | 0 hPa | 0.76 mm | - | - | - |
| 1777840329 | 13.33° C | 55% | 0 hPa | 0.76 mm | - | - | - |
| 1777838531 | 13.89° C | 55% | 0 hPa | 0.76 mm | - | - | - |
| 1777836730 | 13.89° C | 54% | 0 hPa | 0.76 mm | - | - | - |
| 1777834930 | 13.89° C | 54% | 0 hPa | 0.76 mm | - | - | - |
| 1777833130 | 15° C | 49% | 0 hPa | 0.76 mm | - | - | - |
| 1777831330 | 15.56° C | 47% | 0 hPa | 0.76 mm | - | - | - |
| 1777829530 | 16.67° C | 44% | 0 hPa | 0.76 mm | - | - | - |
| 1777827731 | 18.33° C | 54% | 0 hPa | 0.76 mm | - | - | - |
| 1777825930 | 18.33° C | 54% | 0 hPa | 0.76 mm | - | - | - |
| 1777824131 | 18.33° C | 58% | 0 hPa | 0.76 mm | - | - | - |
| 1777822330 | 19.44° C | 56% | 0 hPa | 0.51 mm | - | - | - |
| 1777820530 | 21.11° C | 43% | 0 hPa | 0 mm | - | - | - |
| 1777818730 | 21.67° C | 41% | 0 hPa | 0 mm | - | - | - |
| 1777816930 | 21.67° C | 35% | 0 hPa | 0 mm | - | - | - |
| 1777815131 | 22.22° C | 33% | 0 hPa | 0 mm | - | - | - |
| 1777813330 | 21.67° C | 37% | 0 hPa | 0 mm | - | - | - |
| 1777811536 | 22.22° C | 35% | 0 hPa | 0 mm | - | - | - |
| 1777809730 | 21.11° C | 42% | 0 hPa | 0 mm | - | - | - |
| 1777807932 | 21.11° C | 41% | 0 hPa | 0 mm | - | - | - |
* Rain since midnight (hover to see other rain measurements)
** Current wind speed in m/s (hover to see current wind gust speed)